Date,TemperatureHighF,TemperatureAvgF,TemperatureLowF,DewpointHighF,DewpointAvgF,DewpointLowF,HumidityHigh,HumidityAvg,HumidityLow,PressureMaxIn,PressureMinIn,WindSpeedMaxMPH,WindSpeedAvgMPH,GustSpeedMaxMPH,PrecipitationSumIn
2013-9-1,85.1,67.5,52.3,55.0,48.8,39.9,80,55,26,29.78,29.64,18,3,18,0.00
2013-9-2,84.0,66.8,53.8,57.0,50.9,45.1,86,60,29,29.81,29.66,29,4,29,0.01
2013-9-3,85.3,67.3,52.6,58.9,50.1,42.2,83,58,23,29.83,29.68,30,2,30,0.01
2013-9-4,85.9,68.7,52.0,55.6,48.0,37.1,86,53,18,29.89,29.75,21,2,21,0.00
2013-9-5,85.5,68.3,47.4,48.9,44.3,36.5,85,47,18,29.90,29.71,18,2,18,0.00
2013-9-6,85.3,68.0,48.3,49.8,41.6,36.8,77,42,19,29.87,29.65,21,3,21,0.00
2013-9-7,83.4,67.7,48.5,49.4,42.3,31.8,75,44,18,29.80,29.62,27,3,27,0.00
2013-9-8,81.8,66.4,49.5,52.3,45.4,38.6,85,51,22,29.70,29.49,21,3,21,0.00
2013-9-9,79.4,65.2,52.6,52.9,46.3,41.6,74,53,27,29.63,29.45,25,3,25,0.00
2013-9-10,72.7,58.5,47.4,54.3,48.8,42.5,93,73,37,29.83,29.58,28,4,28,0.14
2013-9-11,68.4,58.5,52.3,57.8,52.7,48.5,94,82,59,29.84,29.78,24,1,24,0.14
2013-9-12,73.9,58.6,49.1,56.6,52.0,46.4,93,80,47,29.92,29.78,32,3,32,0.07
2013-9-13,59.9,55.9,52.3,54.0,51.9,48.7,95,86,73,29.81,29.71,27,7,27,0.27
2013-9-14,70.3,53.2,46.4,53.8,48.0,43.7,94,84,48,29.82,29.67,36,1,36,0.19
2013-9-15,69.9,54.9,43.9,54.9,47.9,41.9,95,79,51,29.95,29.82,14,1,14,0.10
2013-9-16,71.6,56.4,44.9,54.6,49.3,42.6,93,79,46,29.97,29.81,23,1,23,0.03
2013-9-17,74.0,58.8,43.5,54.5,47.7,41.0,93,70,37,29.92,29.64,17,2,17,0.01
2013-9-18,70.9,56.5,49.5,56.3,49.0,41.4,94,78,41,29.78,29.57,35,5,35,0.20
2013-9-19,69.4,53.7,42.3,55.1,48.7,40.1,95,84,50,29.84,29.70,14,1,14,0.10
2013-9-20,72.1,56.0,40.2,51.1,43.3,37.5,92,67,29,29.94,29.76,11,2,11,0.00
2013-9-21,75.6,56.9,39.8,50.2,43.0,36.3,91,63,30,29.86,29.61,20,2,20,0.00
2013-9-22,61.5,51.9,40.2,53.4,46.1,37.4,90,81,62,29.64,29.33,42,5,48,0.38
2013-9-23,60.1,47.9,37.6,39.8,34.3,28.4,92,63,31,29.99,29.45,34,8,34,0.01
2013-9-24,67.4,49.3,30.4,42.3,34.1,26.1,86,60,27,30.10,29.83,9,2,11,0.00
2013-9-25,73.3,53.8,32.9,42.6,34.1,29.9,91,54,21,29.83,29.46,29,6,32,0.00
2013-9-26,73.5,56.0,36.3,35.2,28.6,20.4,77,40,15,29.56,29.42,32,6,32,0.00
2013-9-27,59.8,48.2,34.1,44.7,32.7,20.4,75,56,32,29.89,29.44,43,12,43,0.00
2013-9-28,61.6,44.1,26.4,29.2,22.6,16.5,79,47,18,30.16,29.89,13,3,13,0.00
2013-9-29,68.3,48.9,28.5,32.5,26.9,22.7,82,48,19,30.12,29.87,20,3,20,0.00
2013-9-30,74.2,55.3,36.5,36.6,29.3,22.3,67,42,16,29.92,29.66,13,3,13,0.00